Regional Weather Roundup
Issued by NWS

Home | Current Version | Previous Version | Graphics & Text | Print | Product List | Glossary On
Versions: 1 2 3 4 5 6 7 8 9 10 11 12 13 14 15 16 17 18 19 20 21 22 23 24 25 26 27 28 29 30 31 32 33 34 35 36 37 38 39 40 41 42 43 44 45 46 47 48 49
000
ASUS45 KSLC 020010
RWRUT

UTAH REGIONAL WEATHER ROUNDUP
NATIONAL WEATHER SERVICE SALT LAKE CITY UT
600 PM MDT SAT AUG 01 2015

UTZ001>011-023>025-020100-

NORTHERN UTAH

CITY           SKY/WX    TMP DP  RH WIND       PRES   REMARKS
BRIGHAM CITY   MOSUNNY   96  13   5 NE8       30.00F
HILL AFB       MOSUNNY   91  40  16 W10       30.05F
LOGAN          SUNNY     92  32  12 N8        30.02F
OGDEN          MOSUNNY   92  39  15 SW12      30.02F
PROVO AIRPORT  MOSUNNY   84  52  32 VRB6      30.04F
SALT LAKE CITY PTSUNNY   93  31  11 NW10      30.00F
VERNAL         MOSUNNY   91  17   6 SE6       30.05F
WENDOVER       PTSUNNY   93  30  10 S5        30.03F
HEBER CITY     PTSUNNY   88  30  12 CALM      30.10F
WEST JORDAN    SUNNY     91  34  13 NW8       30.05F

$$

UTZ012>022-026-027-020100-

SOUTHERN/CENTRAL UTAH

CITY           SKY/WX    TMP DP  RH WIND       PRES   REMARKS
BLANDING       MOSUNNY   77  59  53 CALM      30.25F
BRYCE CANYON   CLOUDY    74  47  38 S10       30.31S
CEDAR CITY     CLOUDY    79  51  37 SW14      30.14S
DELTA          MOSUNNY   92  25   8 E3        30.02F
HANKSVILLE     MOSUNNY   90  46  22 SE13      30.03F
MILFORD        CLOUDY    89  32  13 E9        30.06F
MOAB/CYNLANDS  SUNNY     92  53  26 S15       30.01F
PRICE          SUNNY     93  32  11 SW9       30.09F
ST GEORGE      MOCLDY    86  55  35 SW21      30.01R

$$

REGIONAL REPORTS     COLORADO/ARIZONA

CITY           SKY/WX    TMP DP  RH WIND       PRES   REMARKS
CRAIG, CO      CLOUDY    88  31  13 CALM      30.13S
GRAND JUNCTION CLOUDY    84  49  29 NW25G36   30.07R
RIFLE          CLOUDY    84  42  22 NW17G26   30.10R
MONTROSE       CLOUDY    76  50  40 E26G38    30.18R
CORTEZ         SUNNY     77  55  46 E3        30.18F
PAGE, AZ       PTSUNNY   92  50  23 VRB3      30.03F
GRAND CANYON   CLOUDY    72  53  51 N3        30.26F
KINGMAN        PTSUNNY   85  57  38 N13       30.04F
FLAGSTAFF      PTSUNNY   75  52  44 S6        30.26F

$$

REGIONAL REPORTS    NEVADA/IDAHO/WYOMING

CITY           SKY/WX    TMP DP  RH WIND       PRES   REMARKS
LAS VEGAS, NV  CLOUDY    84  59  42 N3        29.93F
ELY            CLOUDY    85  31  14 SW10      30.18S
ELKO           MOSUNNY   96  24   7 VRB7      30.05F HX  90
POCATELLO, ID  SUNNY     96  25   8 VRB3      30.04F HX  90
BURLEY         PTSUNNY   95  26   8 CALM      30.00F
EVANSTON, WY   PTSUNNY   83  16   8 CALM      30.24S
ROCK SPRINGS   MOSUNNY   83  25  12 SW8       30.18F
KEMMERER       MOSUNNY   82  25  12 NW15      30.24F

$$


USA.gov is the U.S. government's official web portal to all federal, state and local government web resources and services.